Location: Aufkirchen
(47.9603°N, 11.3653°E)
Time: 11:25:35
(UTC+01:00)

Tiros 1 - Pass Details

Date: 26 November 2020
Orbit: 630 x 663 km, 48.4° (Epoch: 21 January)

Event Time Altitude Azimuth Distance (km) Brightness Sun altitude
Rises 18:16:57 0° 257° (WSW) 2,986 12.3 -17.9°
Reaches altitude 10° 18:19:18 10° 257° (WSW) 2,072 11.0 -18.3°
Maximum altitude 18:24:05 86° 169° (S) 662 7.1 -19.1°
Enters shadow 18:25:39 43° 83° (E) 918 7.4 -19.4°
Drops below altitude 10° 18:28:51 10° 81° (E) 2,057 - -19.9°
Sets 18:31:11 0° 81° (E) 2,963 - -20.3°
